CW3330 Weather Reports


time (UTC)temp
C
wind
direction
speed
KPH
gust
KPH
rain 1hr
cm
rain 24hr
cm
rain mn
cm
humidity
%
barometer
mb
20260506042306 6 18 4.8 8.0 0.00 0.00 0.00 83 1009.2
20260506041306 6 26 6.4 8.0 0.00 0.00 0.00 84 1009.3
20260506040306 5 18 4.8 8.0 0.00 0.00 0.00 86 1009.2
20260506035308 5 36 4.8 8.0 0.00 0.00 0.00 88 1009.3
20260506034321 5 46 3.2 4.8 0.00 0.00 0.00 88 1009.3
20260506033306 5 49 3.2 4.8 0.00 0.00 0.00 89 1009.2
20260506032318 4 49 0.0 3.2 0.00 0.00 0.00 89 1009.3
20260506031305 4 49 0.0 0.0 0.00 0.00 0.00 90 1009.3
20260506030750 4 49 0.0 0.0 0.00 0.00 0.00 90 1009.4
20260506025321 4 49 0.0 0.0 0.00 0.00 0.00 85 1009.4
20260506024305 4 49 0.0 0.0 0.00 0.00 0.00 90 1009.5
20260506023310 4 49 0.0 0.0 0.00 0.00 0.00 89 1009.5
20260506022306 5 49 0.0 0.0 0.00 0.00 0.00 89 1009.5
20260506021305 5 49 0.0 0.0 0.00 0.00 0.00 89 1009.5
20260506020307 5 49 0.0 0.0 0.00 0.00 0.00 90 1009.7
20260506015308 5 49 0.0 0.0 0.00 0.00 0.00 90 1009.7
20260506014307 5 49 0.0 1.6 0.00 0.00 0.00 90 1009.7
20260506013305 5 49 1.6 4.8 0.00 0.00 0.00 90 1009.8
20260506012308 5 50 0.0 0.0 0.00 0.00 0.00 90 1009.7
20260506011305 5 50 0.0 0.0 0.00 0.00 0.00 89 1009.8
20260506005752 5 50 0.0 0.0 0.00 0.00 0.00 89 1009.7
20260506004306 6 50 0.0 0.0 0.00 0.00 0.00 89 1009.8
20260506003307 6 50 0.0 0.0 0.00 0.00 0.00 89 1009.9
20260506002306 6 50 0.0 0.0 0.00 0.00 0.00 89 1009.9
20260506001306 6 50 0.0 0.0 0.00 0.00 0.00 90 1009.8
20260506000306 6 50 0.0 0.0 0.00 0.00 0.00 90 1009.9
20260505234309 6 50 0.0 0.0 0.00 0.00 0.00 89 1010.0
20260505233305 6 50 0.0 0.0 0.00 0.00 0.00 89 1010.1
20260505232306 6 50 0.0 0.0 0.00 0.00 0.00 90 1009.9
20260505231307 6 50 0.0 0.0 0.00 0.00 0.00 89 1010.0
20260505230306 6 50 0.0 0.0 0.00 0.00 0.00 89 1010.0
20260505225307 6 50 0.0 0.0 0.00 0.00 0.00 89 1010.0
20260505224310 6 50 0.0 0.0 0.00 0.00 0.00 88 1010.0
20260505223305 7 50 0.0 0.0 0.00 0.00 0.00 88 1010.1
20260505222307 7 50 0.0 0.0 0.00 0.00 0.00 87 1010.0
20260505221318 7 50 0.0 0.0 0.00 0.00 0.00 85 1010.1
20260505220328 8 50 0.0 0.0 0.00 0.00 0.00 85 1010.1
20260505215313 8 50 0.0 0.0 0.00 0.00 0.00 85 1010.2
20260505214313 8 50 1.6 4.8 0.00 0.00 0.00 85 1010.3
20260505213310 8 50 3.2 4.8 0.00 0.00 0.00 84 1010.3
20260505212311 8 50 0.0 0.0 0.00 0.00 0.00 83 1010.4
20260505211311 8 50 0.0 4.8 0.00 0.00 0.00 83 1010.4
20260505210311 8 50 0.0 3.2 0.00 0.00 0.00 82 1010.5
20260505205310 8 50 0.0 3.2 0.00 0.00 0.00 81 1010.5
20260505204810 8 50 1.6 4.8 0.00 0.00 0.00 81 1010.5
20260505203312 8 50 0.0 4.8 0.00 0.00 0.00 80 1010.5
20260505202310 9 50 3.2 6.4 0.00 0.00 0.00 80 1010.5
20260505201310 9 47 3.2 8.0 0.00 0.00 0.00 79 1010.5
20260505200311 9 55 4.8 11.3 0.00 0.00 0.00 78 1010.4
20260505195312 10 58 4.8 8.0 0.00 0.00 0.00 77 1010.4
20260505194747 10 71 3.2 8.0 0.00 0.00 0.00 76 1010.4
20260505193741 10 72 4.8 12.9 0.00 0.00 0.00 75 1010.3
20260505192757 10 63 3.2 11.3 0.00 0.00 0.00 74 1010.4
20260505191258 10 63 4.8 12.9 0.00 0.00 0.00 73 1010.2
20260505190259 10 82 3.2 16.1 0.00 0.00 0.00 73 1010.1
20260505185250 11 78 3.2 12.9 0.00 0.00 0.00 71 1010.1
20260505184245 11 52 4.8 11.3 0.00 0.00 0.00 70 1009.9
20260505183331 11 75 6.4 14.5 0.00 0.00 0.00 68 1010.0
20260505182332 11 81 6.4 16.1 0.00 0.00 0.00 66 1010.0
20260505181332 12 69 8.0 19.3 0.00 0.00 0.00 64 1010.1
20260505180333 12 51 8.0 19.3 0.00 0.00 0.00 62 1010.0
20260505175331 12 67 9.7 19.3 0.00 0.00 0.00 62 1010.1
20260505174331 12 28 11.3 20.9 0.00 0.00 0.00 60 1010.1
20260505173803 12 46 8.0 19.3 0.00 0.00 0.00 61 1010.0
20260505172331 12 44 12.9 20.9 0.00 0.00 0.00 60 1010.0
20260505171331 12 84 8.0 22.5 0.00 0.00 0.00 60 1010.1
20260505170333 13 13 12.9 20.9 0.00 0.00 0.00 59 1010.1
20260505165331 13 18 11.3 19.3 0.00 0.00 0.00 56 1010.2
20260505163331 13 59 12.9 20.9 0.00 0.00 0.00 65 1010.2
20260505162814 13 13 11.3 17.7 0.00 0.00 0.00 65 1010.3
20260505161331 14 25 9.7 22.5 0.00 0.00 0.00 63 1010.4
20260505160818 15 15 8.0 17.7 0.00 0.00 0.00 59 1010.3
20260505153333 13 67 6.4 16.1 0.00 0.00 0.00 66 1010.5
20260505152331 13 36 6.4 14.5 0.00 0.00 0.00 65 1010.4
20260505151331 13 57 8.0 14.5 0.00 0.00 0.00 60 1010.4
20260505150818 13 40 8.0 16.1 0.00 0.00 0.00 66 1010.4
20260505140331 13 87 11.3 20.9 0.00 0.00 0.00 62 1010.7
20260505124332 13 80 6.4 19.3 0.00 0.00 0.00 65 1011.0
20260505123810 15 30 9.7 20.9 0.00 0.00 0.00 61 1011.1
20260505122331 14 45 6.4 20.9 0.00 0.00 0.00 58 1011.1
20260505120332 14 67 9.7 27.4 0.00 0.00 0.00 63 1011.1
20260505115331 14 69 11.3 22.5 0.00 0.00 0.00 62 1011.1
20260505114333 14 26 9.7 22.5 0.00 0.00 0.00 64 1011.1
20260505113332 14 75 14.5 25.7 0.00 0.00 0.00 63 1011.2
20260505112332 14 329 9.7 22.5 0.00 0.00 0.00 61 1011.1
20260505111331 13 67 14.5 19.3 0.00 0.00 0.00 68 1011.2
20260505110817 13 61 4.8 19.3 0.00 0.00 0.00 69 1011.2
20260505101809 12 49 12.9 25.7 0.00 0.00 0.00 65 1011.4
20260505100330 13 24 6.4 22.5 0.00 0.00 0.00 66 1011.4
20260505095331 12 61 12.9 22.5 0.00 0.00 0.00 66 1011.6
20260505094331 12 0 8.0 19.3 0.00 0.00 0.00 67 1011.6
20260505093331 13 48 6.4 20.9 0.00 0.00 0.00 67 1011.6
20260505092331 12 68 9.7 22.5 0.00 0.00 0.00 68 1011.6
20260505091816 12 98 11.3 20.9 0.00 0.00 0.00 67 1011.8
20260505090330 12 40 12.9 19.3 0.00 0.00 0.00 67 1011.8
20260505085332 11 309 8.0 25.7 0.00 0.00 0.00 67 1011.7
20260505084332 11 312 8.0 17.7 0.00 0.00 0.00 74 1011.9
20260505083333 11 30 9.7 19.3 0.00 0.00 0.00 74 1011.9
20260505082332 11 39 11.3 19.3 0.00 0.00 0.00 70 1011.8
20260505081331 11 17 3.2 16.1 0.00 0.00 0.00 77 1011.8
20260505080330 11 39 8.0 16.1 0.00 0.00 0.00 76 1011.9
20260505075332 10 63 8.0 14.5 0.00 0.00 0.00 79 1011.9
20260505074331 10 13 11.3 17.7 0.00 0.00 0.00 80 1011.8
20260505073333 10 9 11.3 20.9 0.00 0.00 0.00 81 1011.9
20260505072332 9 11 6.4 19.3 0.00 0.00 0.00 83 1011.9
20260505071344 9 65 4.8 16.1 0.00 0.00 0.00 80 1011.9
20260505070812 9 308 8.0 19.3 0.00 0.00 0.00 85 1012.0
20260505065841 9 22 12.9 22.5 0.00 0.00 0.00 85 1012.2
20260505064337 9 30 9.7 17.7 0.00 0.00 0.00 85 1012.1
20260505063835 8 30 6.4 19.3 0.00 0.00 0.00 86 1012.0
20260505062331 8 10 11.3 17.7 0.00 0.00 0.00 87 1012.0
20260505061333 8 43 4.8 17.7 0.00 0.00 0.00 90 1012.1
20260505060331 7 5 3.2 4.8 0.00 0.00 0.00 92 1012.0
20260505055805 7 311 1.6 4.8 0.00 0.00 0.00 94 1012.0
20260505054333 6 311 0.0 0.0 0.00 0.00 0.00 93 1012.1
20260505053815 6 311 0.0 4.8 0.00 0.00 0.00 93 1012.0
20260505052332 6 310 3.2 4.8 0.00 0.00 0.00 94 1012.1
20260505051331 5 310 0.0 0.0 0.00 0.00 0.00 94 1012.0
20260505050331 5 310 0.0 0.0 0.00 0.00 0.00 94 1011.9